• In Russia
  • List of Countries
  • For 7 days
  • Water Temperature
  • Satellite Maps
  • Weather Map
  • Weather Widgets
  • user-avatar
    Login

    Hourly Weather Barcs

    Today, 14 December, Thursday

    Time Temperature Precipitation Wind Pressure Humidity
    00:00 +1°C° 0 mm 3 mps 749 mmHg 90%
    01:00 +1°C° 0 mm 3 mps 748 mmHg 90%
    02:00 +1°C° 0 mm 3 mps 748 mmHg 89%
    03:00 +1°C° 0 mm 4 mps 747 mmHg 87%
    04:00 +1°C° 0 mm 4 mps 746 mmHg 86%
    05:00 +2°C° 0 mm 5 mps 746 mmHg 83%
    06:00 +3°C° 0 mm 5 mps 745 mmHg 81%
    07:00 +5°C° 0 mm 5 mps 745 mmHg 79%
    08:00 +6°C° 0 mm 5 mps 745 mmHg 78%
    09:00 +7°C° 0 mm 5 mps 745 mmHg 77%
    10:00 +7°C° 0 mm 5 mps 745 mmHg 76%
    11:00 +8°C° 0.1 mm 5 mps 745 mmHg 75%
    12:00 +10°C° 0.1 mm 4 mps 745 mmHg 74%
    13:00 +10°C° 0.1 mm 4 mps 744 mmHg 74%
    14:00 +10°C° 0.1 mm 3 mps 744 mmHg 76%
    15:00 +10°C° 0.1 mm 3 mps 744 mmHg 78%
    16:00 +9°C° 0.1 mm 2 mps 744 mmHg 81%
    17:00 +9°C° 0.3 mm 2 mps 744 mmHg 82%
    18:00 +8°C° 0.3 mm 2 mps 744 mmHg 84%
    19:00 +8°C° 0.3 mm 2 mps 744 mmHg 85%
    20:00 +8°C° 0.6 mm 3 mps 744 mmHg 86%
    21:00 +8°C° 0.6 mm 3 mps 744 mmHg 87%
    22:00 +8°C° 0.6 mm 3 mps 744 mmHg 87%
    23:00 +8°C° 0.5 mm 3 mps 743 mmHg 86%

    Tomorrow, 15 December, Friday

    Time Temperature Precipitation Wind Pressure Humidity
    00:00 +8°C° 0.5 mm 3 mps 743 mmHg 85%
    01:00 +8°C° 0.5 mm 3 mps 743 mmHg 84%
    02:00 +8°C° 0.1 mm 4 mps 742 mmHg 83%
    03:00 +8°C° 0.1 mm 4 mps 742 mmHg 81%
    04:00 +8°C° 0.1 mm 4 mps 741 mmHg 80%
    05:00 +8°C° 0 mm 4 mps 741 mmHg 78%
    06:00 +9°C° 0 mm 5 mps 741 mmHg 77%
    07:00 +9°C° 0 mm 5 mps 741 mmHg 76%
    08:00 +10°C° 0.1 mm 5 mps 741 mmHg 74%
    09:00 +10°C° 0.1 mm 5 mps 741 mmHg 73%
    10:00 +12°C° 0.1 mm 4 mps 741 mmHg 72%
    11:00 +12°C° 0.3 mm 4 mps 742 mmHg 71%
    12:00 +12°C° 0.3 mm 4 mps 742 mmHg 69%
    13:00 +11°C° 0.3 mm 4 mps 742 mmHg 68%
    14:00 +10°C° 0.2 mm 4 mps 742 mmHg 67%
    15:00 +8°C° 0.2 mm 4 mps 742 mmHg 67%
    16:00 +7°C° 0.2 mm 4 mps 742 mmHg 66%
    17:00 +6°C° 2.6 mm 4 mps 742 mmHg 68%
    18:00 +5°C° 2.6 mm 4 mps 742 mmHg 71%
    19:00 +4°C° 2.6 mm 4 mps 742 mmHg 73%
    20:00 +4°C° 1.3 mm 4 mps 742 mmHg 74%
    21:00 +4°C° 1.3 mm 4 mps 742 mmHg 74%
    22:00 +4°C° 1.3 mm 4 mps 742 mmHg 75%
    23:00 +4°C° 0.9 mm 4 mps 742 mmHg 77%

    Day after tomorrow, 16 December, Saturday

    Time Temperature Precipitation Wind Pressure Humidity
    00:00 +3°C° 0.9 mm 3 mps 742 mmHg 79%
    01:00 +4°C° 0.9 mm 2 mps 742 mmHg 81%
    02:00 +4°C° 0.4 mm 2 mps 742 mmHg 82%
    03:00 +4°C° 0.4 mm 2 mps 742 mmHg 83%
    04:00 +4°C° 0.4 mm 2 mps 743 mmHg 84%
    05:00 +4°C° 0.1 mm 2 mps 743 mmHg 85%
    06:00 +4°C° 0.1 mm 2 mps 744 mmHg 86%
    07:00 +4°C° 0.1 mm 1 mps 744 mmHg 87%
    08:00 +5°C° 0 mm 1 mps 745 mmHg 85%
    09:00 +5°C° 0 mm 1 mps 745 mmHg 83%
    10:00 +6°C° 0 mm 1 mps 746 mmHg 80%
    11:00 +6°C° 0 mm 1 mps 746 mmHg 78%
    12:00 +6°C° 0 mm 2 mps 746 mmHg 75%
    13:00 +6°C° 0 mm 2 mps 746 mmHg 72%
    14:00 +5°C° 0 mm 2 mps 747 mmHg 74%
    15:00 +5°C° 0 mm 2 mps 747 mmHg 77%
    16:00 +4°C° 0 mm 2 mps 747 mmHg 80%
    17:00 +5°C° 0 mm 1 mps 748 mmHg 81%
    18:00 +5°C° 0 mm 1 mps 748 mmHg 81%
    19:00 +5°C° 0 mm 1 mps 749 mmHg 82%
    20:00 +3°C° 0 mm 2 mps 749 mmHg 82%
    21:00 +3°C° 0 mm 2 mps 750 mmHg 81%
    22:00 +2°C° 0 mm 2 mps 750 mmHg 80%
    23:00 +2°C° 0 mm 2 mps 750 mmHg 80%

    17 December, Sunday

    Time Temperature Precipitation Wind Pressure Humidity
    00:00 +1°C° 0 mm 3 mps 751 mmHg 81%
    01:00 +1°C° 0 mm 3 mps 751 mmHg 81%
    02:00 0°C° 0 mm 3 mps 751 mmHg 81%
    03:00 0°C° 0 mm 3 mps 752 mmHg 82%
    04:00 0°C° 0 mm 3 mps 752 mmHg 83%
    05:00 0°C° 0 mm 3 mps 753 mmHg 83%
    06:00 -1°C° 0 mm 3 mps 753 mmHg 83%
    07:00 -1°C° 0 mm 2 mps 754 mmHg 83%
    08:00 0°C° 0 mm 3 mps 754 mmHg 79%
    09:00 +1°C° 0 mm 3 mps 755 mmHg 74%
    10:00 +2°C° 0 mm 3 mps 755 mmHg 70%
    11:00 +2°C° 0 mm 3 mps 756 mmHg 68%
    12:00 +3°C° 0 mm 3 mps 756 mmHg 65%
    13:00 +3°C° 0 mm 3 mps 756 mmHg 63%
    14:00 +3°C° 0 mm 3 mps 756 mmHg 67%
    15:00 +3°C° 0 mm 2 mps 756 mmHg 70%
    16:00 +3°C° 0 mm 2 mps 756 mmHg 74%
    17:00 +2°C° 0 mm 2 mps 757 mmHg 76%
    18:00 +2°C° 0 mm 2 mps 758 mmHg 78%
    19:00 +1°C° 0 mm 2 mps 758 mmHg 80%
    20:00 +1°C° 0 mm 2 mps 759 mmHg 81%
    21:00 +1°C° 0 mm 2 mps 759 mmHg 81%
    22:00 +1°C° 0 mm 2 mps 760 mmHg 82%
    23:00 +1°C° 0 mm 2 mps 760 mmHg 83%

    18 December, Monday

    Time Temperature Precipitation Wind Pressure Humidity
    00:00 +1°C° 0 mm 2 mps 760 mmHg 84%
    01:00 -1°C° 0 mm 2 mps 760 mmHg 85%
    02:00 -1°C° 0 mm 2 mps 760 mmHg 85%
    03:00 -1°C° 0 mm 2 mps 760 mmHg 85%
    04:00 +1°C° 0 mm 1 mps 760 mmHg 85%
    05:00 +1°C° 0 mm 1 mps 760 mmHg 85%
    06:00 -1°C° 0 mm 2 mps 760 mmHg 85%
    07:00 -1°C° 0 mm 2 mps 760 mmHg 84%
    08:00 +1°C° 0 mm 2 mps 760 mmHg 80%
    09:00 +1°C° 0 mm 2 mps 760 mmHg 76%
    10:00 +2°C° 0 mm 2 mps 760 mmHg 72%
    11:00 +2°C° 0 mm 3 mps 759 mmHg 68%
    12:00 +3°C° 0 mm 3 mps 758 mmHg 64%
    13:00 +3°C° 0 mm 4 mps 757 mmHg 60%
    14:00 +3°C° 0 mm 3 mps 757 mmHg 63%
    15:00 +2°C° 0 mm 3 mps 756 mmHg 66%
    16:00 +2°C° 0 mm 3 mps 756 mmHg 69%
    17:00 +2°C° 0.2 mm 3 mps 756 mmHg 70%
    18:00 +2°C° 0.2 mm 3 mps 756 mmHg 72%
    19:00 +2°C° 0.2 mm 3 mps 756 mmHg 73%
    20:00 +3°C° 0.1 mm 2 mps 756 mmHg 75%
    21:00 +2°C° 0.1 mm 2 mps 756 mmHg 77%
    22:00 +2°C° 0.1 mm 2 mps 756 mmHg 79%
    23:00 +2°C° 0 mm 2 mps 756 mmHg 81%

    19 December, Tuesday

    Time Temperature Precipitation Wind Pressure Humidity
    00:00 +3°C° 0 mm 1 mps 757 mmHg 82%
    01:00 +3°C° 0 mm 1 mps 757 mmHg 84%
    02:00 +2°C° 0.1 mm 1 mps 757 mmHg 84%
    03:00 +2°C° 0.1 mm 1 mps 757 mmHg 85%
    04:00 +2°C° 0.1 mm 1 mps 758 mmHg 86%
    05:00 +2°C° 0.2 mm 1 mps 758 mmHg 86%
    06:00 +3°C° 0.2 mm 1 mps 759 mmHg 86%
    07:00 +3°C° 0.2 mm 1 mps 759 mmHg 86%
    08:00 +2°C° 0.1 mm 2 mps 760 mmHg 85%
    09:00 +3°C° 0.1 mm 2 mps 760 mmHg 84%
    10:00 +3°C° 0.1 mm 2 mps 761 mmHg 83%
    11:00 +4°C° 0.2 mm 2 mps 761 mmHg 83%
    12:00 +4°C° 0.2 mm 2 mps 761 mmHg 82%
    13:00 +3°C° 0.2 mm 3 mps 761 mmHg 82%
    14:00 +3°C° 0.1 mm 3 mps 761 mmHg 84%
    15:00 +3°C° 0.1 mm 3 mps 761 mmHg 86%
    16:00 +2°C° 0.1 mm 3 mps 761 mmHg 88%
    17:00 +2°C° 0.1 mm 3 mps 762 mmHg 89%
    18:00 +1°C° 0.1 mm 3 mps 762 mmHg 90%
    19:00 +1°C° 0.1 mm 3 mps 763 mmHg 90%
    20:00 +1°C° 0.1 mm 3 mps 763 mmHg 91%
    21:00 0°C° 0.1 mm 3 mps 764 mmHg 91%
    22:00 0°C° 0.1 mm 3 mps 764 mmHg 91%
    23:00 0°C° 0.1 mm 3 mps 764 mmHg 91%
    Show more